Location: Ashtead
(51.3000°N, 0.3000°W)
Time: 17:03:44
(UTC+00:00)

CZ-2C R/B - Pass Details

Date: 05 May 2025
Orbit: 781 x 868 km, 98.4° (Epoch: 12 May)

Event Time Altitude Azimuth Distance (km) Brightness Sun altitude
Exits shadow 23:48:55 15° 110° (ESE) 2,040 4.5 -22.1°
Maximum altitude 23:52:14 28° 60° (ENE) 1,465 4.2 -22.1°
Drops below altitude 10° 23:56:37 10° 3° (N) 2,368 6.2 -22.1°
Sets 23:59:12 0° 352° (N) 3,294 7.2 -22.1°
